K4AXV-13 Weather Reports


Display with metric or nautical units.
time (UTC)temp
F
wind
direction
speed
MPH
gust
MPH
rain 1hr
in
rain 24hr
in
rain mn
in
humidity
%
barometer
mb
20260831181655 86 143 3.0 5.0 0.00 0.01 0.00
20260831181156 86 134 7.0 7.0 0.00 0.01 0.00
20260831180654 86 111 6.0 3.0 0.00 0.01 0.00
20260831180155 86 113 5.0 5.0 0.00 0.01 0.00
20260831175653 87 131 1.0 2.0 0.00 0.01 0.00
20260831175154 86 129 4.0 3.0 0.00 0.01 0.00
20260831174653 86 125 6.0 5.0 0.00 0.01 0.00
20260831174154 88 125 2.0 2.0 0.00 0.01 0.00
20260831173652 87 302 3.0 2.0 0.00 0.01 0.00
20260831172651 86 124 6.0 6.0 0.00 0.01 0.00
20260831172152 86 321 1.0 1.0 0.00 0.01 0.00
20260831171650 86 172 2.0 3.0 0.00 0.01 0.00
20260831171151 86 142 5.0 6.0 0.00 0.01 0.00
20260831170648 85 150 4.0 6.0 0.00 0.01 0.00
20260831170147 85 155 5.0 5.0 0.00 0.01 0.00
20260831165645 85 128 7.0 8.0 0.00 0.01 0.00
20260831165146 85 153 6.0 6.0 0.00 0.01 0.00
20260831164145 85 167 0.0 2.0 0.00 0.01 0.00
20260831163144 85 108 0.0 0.0 0.00 0.01 0.00
20260831162144 85 105 2.0 1.0 0.00 0.01 0.00
20260831161642 85 75 0.0 0.0 0.00 0.01 0.00
20260831161143 85 75 0.0 0.0 0.00 0.01 0.00
20260831160641 85 84 3.0 3.0 0.00 0.01 0.00
20260831160142 86 101 2.0 2.0 0.00 0.01 0.00
20260831155640 85 121 2.0 2.0 0.00 0.01 0.00
20260831155141 85 115 2.0 2.0 0.00 0.01 0.00
20260831154639 85 77 2.0 2.0 0.00 0.01 0.00
20260831154140 85 105 4.0 1.0 0.00 0.01 0.00
20260831145634 83 86 2.0 3.0 0.00 0.01 0.00
20260831144135 82 152 2.0 4.0 0.00 0.01 0.00
20260831142632 81 82 3.0 2.0 0.00 0.01 0.00
20260831142133 80 80 1.0 2.0 0.00 0.01 0.00
20260831141132 81 146 3.0 4.0 0.00 0.01 0.00
20260831140629 80 139 2.0 2.0 0.00 0.01 0.00
20260831134127 79 153 2.0 4.0 0.00 0.01 0.00
20260831133126 78 91 4.0 2.0 0.00 0.01 0.00
20260831130124 77 59 0.0 0.0 0.00 0.01 0.00
20260831125621 77 59 0.0 0.0 0.00 0.01 0.00
20260831122616 76 59 0.0 0.0 0.00 0.01 0.00
20260831122117 76 59 0.0 0.0 0.00 0.01 0.00
20260831121615 75 59 0.0 0.0 0.00 0.01 0.00
20260831121116 75 59 0.0 0.0 0.00 0.01 0.00
20260831120615 75 59 0.0 0.0 0.00 0.01 0.00
20260831120115 75 59 0.0 0.0 0.00 0.01 0.00
20260831115612 75 59 0.0 0.0 0.00 0.01 0.00
20260831114112 75 59 0.0 0.0 0.00 0.01 0.00
20260831113610 75 59 0.0 0.0 0.00 0.01 0.00
20260831113111 75 80 0.0 0.0 0.00 0.01 0.00
20260831112607 75 80 0.0 0.0 0.00 0.01 0.00
20260831111606 76 93 0.0 0.0 0.00 0.01 0.00
20260831111107 75 174 0.0 2.0 0.00 0.01 0.00
20260831110605 75 79 0.0 0.0 0.00 0.01 0.00
20260831110107 75 79 0.0 0.0 0.00 0.01 0.00
20260831105603 75 79 0.0 0.0 0.00 0.01 0.00
20260831105103 75 39 0.0 0.0 0.00 0.01 0.00
20260831104602 76 39 0.0 0.0 0.00 0.01 0.00
20260831104103 76 39 0.0 0.0 0.00 0.01 0.00
20260831103601 75 39 0.0 0.0 0.00 0.01 0.00
20260831103102 75 39 0.0 0.0 0.00 0.01 0.00
20260831102101 76 39 0.0 0.0 0.00 0.01 0.00
20260831100558 75 39 0.0 0.0 0.00 0.01 0.00
20260831100059 75 39 0.0 0.0 0.00 0.01 0.00
20260831095059 75 39 0.0 0.0 0.00 0.01 0.00
20260831093057 76 39 0.0 0.0 0.00 0.01 0.00
20260831092554 76 39 0.0 0.0 0.00 0.01 0.00
20260831092056 75 39 0.0 0.0 0.00 0.01 0.00
20260831091553 76 39 0.0 0.0 0.00 0.01 0.00
20260831091052 76 39 0.0 0.0 0.00 0.01 0.00
20260831090549 76 39 0.0 0.0 0.00 0.01 0.00
20260831090050 76 39 0.0 0.0 0.00 0.01 0.00
20260831085545 75 39 0.0 0.0 0.00 0.01 0.00
20260831085046 76 39 0.0 0.0 0.00 0.01 0.00
20260831084543 76 39 0.0 0.0 0.00 0.01 0.00
20260831084043 76 39 0.0 0.0 0.00 0.01 0.00
20260831083542 75 39 0.0 0.0 0.00 0.01 0.00
20260831083043 76 39 0.0 0.0 0.00 0.01 0.00
20260831081536 75 39 0.0 0.0 0.00 0.01 0.00
20260831081037 75 39 0.0 0.0 0.00 0.01 0.00
20260831080035 76 39 0.0 0.0 0.00 0.01 0.00
20260831075533 76 39 0.0 0.0 0.00 0.01 0.00
20260831075035 76 39 0.0 0.0 0.00 0.01 0.00
20260831074532 75 39 0.0 0.0 0.00 0.01 0.00
20260831074033 76 39 0.0 0.0 0.00 0.01 0.00
20260831073530 76 39 0.0 0.0 0.00 0.01 0.00
20260831073031 76 39 0.0 0.0 0.00 0.01 0.00
20260831072529 76 39 0.0 0.0 0.00 0.01 0.00
20260831072030 76 39 0.0 0.0 0.00 0.01 0.00
20260831071527 76 39 0.0 0.0 0.00 0.01 0.00
20260831070525 76 39 0.0 0.0 0.00 0.01 0.00
20260831065522 76 39 0.0 0.0 0.00 0.01 0.00
20260831065021 76 39 0.0 0.0 0.00 0.01 0.00
20260831064519 76 39 0.0 0.0 0.00 0.01 0.00
20260831064019 76 39 0.0 0.0 0.00 0.01 0.00
20260831063018 76 39 0.0 0.0 0.00 0.16 0.01
20260831062514 77 39 0.0 0.0 0.00 0.16 0.01
20260831061513 77 39 0.0 0.0 0.00 0.16 0.01
20260831060514 76 39 0.0 0.0 0.00 0.16 0.01
20260831060013 76 39 0.0 0.0 0.00 0.16 0.01
20260831055511 76 39 0.0 0.0 0.00 0.16 0.01
20260831055014 77 39 0.0 0.0 0.00 0.16 0.01
20260831054510 77 39 0.0 0.0 0.00 0.16 0.01
20260831053506 77 39 0.0 0.0 0.00 0.16 0.01
20260831053007 77 39 0.0 0.0 0.00 0.16 0.01
20260831052505 77 39 0.0 0.0 0.00 0.16 0.01
20260831052006 77 39 0.0 0.0 0.00 0.16 0.01
20260831051502 76 39 0.0 0.0 0.00 0.16 0.01
20260831051003 77 39 0.0 0.0 0.00 0.16 0.01
20260831050501 77 39 0.0 0.0 0.00 0.16 0.01
20260831050002 77 39 0.0 0.0 0.00 0.16 0.01
20260831045001 77 39 0.0 0.0 0.00 0.16 0.01
20260831044459 77 39 0.0 0.0 0.00 0.16 0.01
20260831044000 77 39 0.0 0.0 0.00 0.16 0.01
20260831043459 78 39 0.0 0.0 0.00 0.16 0.01
20260831043000 77 39 0.0 0.0 0.00 0.16 0.01
20260831042458 77 39 0.0 0.0 0.00 0.16 0.01
20260831041959 77 39 0.0 0.0 0.00 0.16 0.01
20260831041457 77 39 0.0 0.0 0.00 0.16 0.01
20260831040958 77 39 0.0 0.0 0.00 0.16 0.01
20260831040456 78 39 0.0 0.0 0.00 0.16 0.01
20260831035957 76 39 0.0 0.0 0.00 0.16 0.01
20260831035456 78 39 0.0 0.0 0.00 0.16 0.01
20260831034957 77 39 0.0 0.0 0.00 0.16 0.01
20260831034455 77 39 0.0 0.0 0.00 0.16 0.01
20260831033956 78 39 0.0 0.0 0.00 0.16 0.01
20260831033454 78 53 1.0 1.0 0.00 0.16 0.01
20260831032956 78 34 0.0 0.0 0.00 0.16 0.01
20260831032452 78 34 0.0 0.0 0.00 0.16 0.01
20260831031953 78 34 0.0 0.0 0.00 0.16 0.01
20260831031451 78 34 0.0 0.0 0.00 0.16 0.01
20260831030952 78 34 0.0 0.0 0.00 0.16 0.01
20260831030450 78 34 0.0 0.0 0.00 0.16 0.01
20260831025951 77 34 0.0 0.0 0.00 0.16 0.01
20260831025449 78 34 0.0 0.0 0.00 0.16 0.01
20260831024950 79 34 0.0 0.0 0.00 0.16 0.01
20260831024448 78 34 0.0 0.0 0.00 0.16 0.01
20260831023950 78 34 0.0 0.0 0.00 0.16 0.01
20260831022949 78 34 0.0 0.0 0.00 0.16 0.01
20260831022447 78 34 0.0 0.0 0.00 0.16 0.01
20260831021948 78 34 0.0 0.0 0.00 0.16 0.01
20260831020947 78 75 0.0 0.0 0.00 0.16 0.01
20260831020445 78 75 0.0 0.0 0.00 0.16 0.01
20260831015946 79 75 0.0 0.0 0.00 0.16 0.01
20260831015445 78 75 0.0 0.0 0.00 0.16 0.01
20260831014946 79 75 0.0 0.0 0.00 0.16 0.01
20260831014444 78 75 0.0 0.0 0.00 0.16 0.01
20260831013945 79 75 0.0 0.0 0.00 0.16 0.01
20260831013443 79 75 0.0 0.0 0.00 0.16 0.01
20260831012945 78 75 0.0 0.0 0.00 0.16 0.01
20260831012440 78 75 0.0 0.0 0.00 0.16 0.01
20260831011941 78 75 0.0 0.0 0.00 0.16 0.01
20260831011440 79 75 0.0 0.0 0.00 0.16 0.01
20260831010941 79 75 0.0 0.0 0.00 0.16 0.01
20260831010437 79 75 0.0 0.0 0.00 0.16 0.01
20260831005935 79 75 0.0 0.0 0.00 0.16 0.01
20260831005432 79 75 0.0 0.0 0.00 0.16 0.01
20260831004933 79 75 0.0 0.0 0.00 0.16 0.01
20260831004432 80 75 0.0 0.0 0.00 0.16 0.01
20260831003934 79 75 0.0 0.0 0.00 0.16 0.01
20260831002932 80 75 0.0 0.0 0.00 0.16 0.01
20260831001932 80 121 3.0 2.0 0.00 0.16 0.01
20260831001430 80 37 0.0 0.0 0.00 0.16 0.01
20260831000931 80 37 0.0 0.0 0.00 0.16 0.01
20260831000429 80 37 0.0 0.0 0.00 0.16 0.01
20260830235930 80 37 0.0 0.0 0.00 0.16 0.01
20260830235428 80 65 1.0 1.0 0.00 0.16 0.01
20260830234929 80 51 0.0 0.0 0.00 0.16 0.01
20260830234428 80 51 0.0 0.0 0.00 0.16 0.01
20260830233930 81 51 0.0 0.0 0.00 0.16 0.01
20260830232928 80 63 0.0 0.0 0.00 0.16 0.01
20260830232426 80 63 0.0 0.0 0.00 0.16 0.01
20260830231426 80 68 2.0 2.0 0.00 0.16 0.01
20260830230927 80 39 0.0 0.0 0.00 0.16 0.01
20260830230425 81 39 0.0 0.0 0.00 0.16 0.01
20260830225926 81 39 0.0 0.0 0.00 0.16 0.01
20260830225425 81 39 0.0 0.0 0.00 0.16 0.01
20260830224926 81 39 0.0 0.0 0.00 0.16 0.01
20260830224424 81 39 0.0 0.0 0.00 0.16 0.01
20260830223925 81 39 0.0 0.0 0.00 0.16 0.01
20260830223423 81 39 0.0 0.0 0.00 0.16 0.01
20260830222924 82 39 0.0 0.0 0.00 0.16 0.01
20260830221923 81 59 0.0 0.0 0.00 0.16 0.01
20260830221421 82 48 0.0 0.0 0.00 0.16 0.01
20260830220922 82 48 0.0 0.0 0.00 0.16 0.01
20260830220421 82 48 0.0 0.0 0.00 0.16 0.01
20260830215922 82 35 2.0 0.0 0.00 0.16 0.01
20260830215420 82 104 3.0 2.0 0.00 0.16 0.01
20260830214419 81 94 3.0 2.0 0.00 0.16 0.01
20260830213920 82 138 3.0 5.0 0.00 0.16 0.01
20260830212920 81 138 2.0 4.0 0.00 0.16 0.01
20260830212418 82 113 2.0 2.0 0.00 0.16 0.01
20260830210916 82 159 3.0 6.0 0.00 0.16 0.01
20260830204916 82 120 3.0 4.0 0.00 0.16 0.01
20260830203913 82 127 3.0 1.0 0.00 0.16 0.01
20260830203411 82 98 4.0 3.0 0.00 0.16 0.01
20260830202409 82 138 5.0 3.0 0.00 0.16 0.01
20260830201910 82 136 3.0 3.0 0.00 0.16 0.01
20260830201406 82 125 5.0 3.0 0.00 0.16 0.01
20260830200907 82 158 4.0 5.0 0.00 0.16 0.01
20260830200405 82 127 5.0 5.0 0.00 0.16 0.01
20260830195906 82 145 4.0 2.0 0.00 0.16 0.01
20260830195404 82 121 3.0 3.0 0.00 0.16 0.01
20260830194905 82 141 4.0 4.0 0.00 0.16 0.01
20260830194404 82 132 5.0 4.0 0.00 0.16 0.01
20260830193905 82 159 5.0 6.0 0.00 0.16 0.01
20260830193403 83 117 7.0 8.0 0.00 0.16 0.01
20260830192904 84 142 4.0 5.0 0.00 0.16 0.01
20260830192402 83 129 3.0 3.0 0.00 0.16 0.01
20260830191903 83 158 3.0 3.0 0.00 0.16 0.01
20260830191400 83 138 2.0 3.0 0.00 0.16 0.01
20260830190901 83 141 2.0 2.0 0.00 0.16 0.01
20260830190359 83 150 2.0 2.0 0.00 0.16 0.01
20260830185900 83 129 3.0 2.0 0.00 0.16 0.01
20260830185358 83 139 3.0 3.0 0.00 0.16 0.01
20260830184859 84 128 3.0 3.0 0.00 0.16 0.01
20260830184357 83 148 2.0 4.0 0.00 0.16 0.01
20260830183858 83 131 5.0 5.0 0.00 0.16 0.01
20260830183356 83 105 2.0 2.0 0.00 0.16 0.01
20260830182858 83 150 6.0 6.0 0.01 0.16 0.01
20260830182356 83 91 4.0 5.0 0.01 0.16 0.01